SCP
0 0 0 0 0 0 0 0 0 0 0 0 0 0 0 0 -0 -0 -0 -0 -0 -0 -0 -0 -0 -0 -0 -0 -0 -0 -0 -0 0 0 0 0 0 -0 0 0 0 0 0 0
0 0 0 0 0 0 0 0 0 0 0 0 0 0 0 0 0 0 0 0 0 -0 -0 -0 -0 -0 -0 -0 -0 -0 -0 -0 0 0 0 0 0 0 0 0 0 0 0 0
0 0 0 0 0 0 0 0 0 0 0 0 0 0 0 0 0 0 0 0 0 0 -0 -0 -0 -0 -0 -0 -0 -0 -0 -0 -0 0 0 0 0 0 0 0 0 0 0 0
0 0 0 0 0 0 0 0 0 0 0 0 0 0 0 0 0 0 0 0 0 0 0 -0 -0 -0 -0 -0 -0 -0 -0 -0 -0 -0 0 0 0 0 0 0 0 0 0 0
0 0 0 0 0 0 0 0 0 0 0 0 0 0 0 0 0 0 0 0 0 0 0 0 -0 -0 -0 -0 -0 -0 -0 -0 -0 0 0 0 0 0 0 0 0 0 0 0
0 0 0 0 0 0 0 0 0 0 0 0 0 0 0 0 0 0 0 0 0 0 0 0 -0 -0 -0 -0 -0 -0 -0 -0 -0 -0 0 0 0 0 0 0 0 0 0 0
0 0 0 0 0 0 0 0 0 0 0 0 0 0 0 0 0 0 0 0 0 0 0 0 0 0 -0 -0 -0 -0 -0 -0 -0 -0 -0 -0 0 0 0 0 0 0 0 0
0 0 0 0 0 0 0 0 0 0 0 0 0 0 0 0 0 0 0 0 0 0 0 0 0 0 0 -0 -0 -0 -0 -0 -0 -0 -0 -0 -0 0 0 0 0 0 0 0
0 0 0 0 0 0 0 0 0 0 0 0 0 0 0 0 0 0 0 0 0 0 0 0 0 0 0 0 -0 -0 -0 -0 -0 -0 -0 -0 -0 0 0 0 0 0 0 0
0 0 0 0 0 0 0 0 0 0 0 0 0 0 0 0 0 0 0 0 0 0 0 0 0 0 0 0 0 -0 -0 -0 -0 -0 -0 -0 -0 -0 0 0 0 0 0 0
0 0 0 0 0 0 0 0 0 0 0 0 0 0 0 0 0 0 0 0 0 0 0 0 0 0 0 0 0 0 -0 -0 -0 -0 -0 -0 -0 -0 0 0 0 0 0 0
0 0 0 0 0 0 0 0 0 0 0 0 0 0 0 0 0 0 0 0 0 0 0 0 0 0 0 0 0 0 -0 -0 -0 -0 -0 -0 -0 -0 0 0 0 0 0 0
0 0 0 0 0 0 0 0 0 0 0 0 0 0 0 0 0 0 0 0 0 0 0 0 0 0 0 0 0 0 -0 -0 -0 -0 -0 -0 -0 -0 0 0 0 0 0 0
0 0 0 0 0 0 0 0 0 0 0 0 0 0 0 0 0 0 0 0 0 0 0 0 0 0 0 0 0 0 0 -0 -0 -0 -0 -0 -0 0 0 0 0 0 0 0
0 0 0 0 0 0 0 0 0 0 0 0 0 0 0 0 0 0 0 0 0 0 0 0 0 0 0 0 0 0 0 -0 -0 -0 -0 -0 -0 0 0 0 0 0 0 0
0 0 0 0 0 0 0 0 0 0 0 0 0 0 0 0 0 0 0 0 0 0 0 0 0 0 0 0 0 0 -0 -0 -0 -0 -0 -0 0 0 0 0 0 0 0 0
-0 0 0 0 0 0 0 0 0 0 0 0 0 0 0 0 0 0 0 0 0 0 0 0 0 0 0 0 0 0 -0 -0 -0 -0 -0 0 0 0 0 0 0 0 0 0
-0 -0 -0 -0 -0 -0 -0 -0 0 0 0 -0 -0 -0 -0 -0 -0 -0 0 0 0 0 0 0 0 0 0 0 0 -0 -0 -0 -0 -0 0 0 0 0 0 0 0 0 0 0
-0 -0 -0 -0 -0 -0 -0 -0 -0 -0 -0 -0 0 0 0 0 0 -0 0 -0 -0 -0 0 0 0 0 0 0 0 -0 -0 -0 -0 0 0 0 0 0 0 0 0 0 0 0
-0 -0 -0 -0 -0 -0 0 -0 -0 -0 -0 -0 -0 -0 -0 0 0 0 0 0 0 0 0 0 0 0 0 -0 -0 -0 -0 -0 0 0 0 0 0 0 0 0 0 0 0 0
0 0 0 0 0 0 -0 -0 -0 -0 -0 -0 -0 -0 -0 -0 -0 -0 -0 -0 0 -0 0 -0 -0 -0 -0 -0 0 0 0 0 0 0 0 0 0 0 0 0 0 0 0 0
0 0 0 0 0 0 0 -0 -0 -0 -0 -0 -0 0 0 0 0 0 0 0 0 0 0 0 0 0 0 0 0 0 0 0 0 0 0 0 0 0 0 0 0 0 0 0
0 0 0 0 0 0 0 0 0 0 0 0 0 0 0 0 0 0 0 0 0 0 0 0 0 0 0 0 0 0 0 0 0 0 0 0 0 0 0 0 0 0 0 0
0 0 0 0 0 0 0 0 0 0 0 0 0 0 0 0 0 0 0 0 0 0 0 0 0 0 0 0 0 0 0 0 0 0 0 0 0 0 0 0 0 0 0 0
0 0 0 0 0 0 0 0 0 0 0 0 0 0 0 0 0 0 0 0 0 0 0 0 0 0 0 0 0 0 0 0 0 0 0 0 0 0 0 0 0 0 0 0
0 0 0 0 0 0 0 0 0 0 0 0 0 0 0 0 0 0 0 0 0 0 0 0 0 0 0 0 0 0 0 0 0 0 0 0 0 0 0 0 0 0 0 0
0 0 0 0 0 0 0 0 0 0 0 0 0 0 0 0 0 0 0 0 0 0 0 0 0 -0 0 0 0 0 0 0 0 0 0 0 0 0 0 0 0 0 0 0
Wind_Speed_500mb
8 11 7 14 25 10 15 11 13 33 18 35 10 16 44 49 37 27 35 30 26 23 24 22 31 36 38 41 46 52 52 50 45 41 39 38 38 46 51 52 47 46 50 54
7 12 14 30 37 17 29 26 22 33 46 34 53 49 55 54 51 50 47 37 30 29 27 22 26 34 37 38 42 50 53 54 53 49 45 41 38 41 50 54 49 49 51 55
10 5 4 21 24 37 16 8 12 20 37 29 20 33 50 65 62 57 50 45 42 40 30 24 28 30 34 42 43 46 53 53 56 53 50 47 41 40 47 52 52 50 53 57
7 4 8 12 5 11 21 21 14 19 28 40 38 63 66 74 69 65 61 51 52 47 37 25 28 28 31 39 40 45 50 54 56 56 54 52 48 41 45 51 57 54 56 57
6 10 20 32 10 9 12 25 23 18 29 58 64 60 48 71 70 72 62 61 45 41 36 35 31 27 36 42 46 49 49 54 56 59 60 59 54 47 40 52 58 61 59 61
4 9 13 30 4 22 10 29 28 43 40 44 59 11 25 80 81 68 48 36 40 37 36 38 33 36 41 43 45 47 51 54 56 58 62 62 57 51 47 47 58 63 64 65
21 13 16 15 22 8 8 16 26 34 40 44 25 43 69 72 70 58 45 42 40 42 45 43 37 40 47 46 47 47 54 58 57 58 64 64 60 54 50 46 53 62 67 69
3 5 27 23 2 13 17 34 46 54 54 49 47 54 58 65 65 58 46 48 46 54 56 52 45 46 49 51 43 48 56 60 60 60 63 64 62 58 50 48 50 61 67 73
17 15 12 15 21 44 68 62 56 56 58 52 54 60 63 63 59 63 55 55 58 63 65 57 54 51 51 54 48 53 58 65 65 65 66 63 62 59 49 52 53 63 69 76
4 18 34 55 67 57 50 57 51 46 52 51 50 55 60 56 53 49 45 50 56 59 65 60 56 50 53 52 54 59 62 68 70 70 71 69 61 56 50 57 59 66 72 77
24 35 46 54 58 42 31 32 39 41 42 42 42 43 42 48 49 51 53 50 48 48 52 57 54 53 55 58 61 64 65 70 73 73 73 74 64 55 52 58 62 67 73 75
30 51 31 36 26 33 33 28 28 37 47 48 49 52 52 54 51 48 48 44 43 41 47 54 56 62 65 66 67 67 70 73 74 76 75 74 67 58 52 54 55 57 62 65
22 32 36 40 27 20 26 33 38 43 45 53 52 54 58 64 66 65 63 59 53 55 59 64 68 72 73 70 69 72 74 76 77 78 77 75 65 52 53 50 48 54 54 56
16 33 15 15 20 40 38 39 44 46 46 46 50 49 52 61 68 69 71 70 70 74 78 78 79 83 78 72 74 77 76 77 77 77 78 73 64 52 50 50 53 57 58 56
36 37 33 34 35 41 44 50 56 56 56 56 53 55 54 59 63 64 63 64 67 75 81 76 76 80 76 75 76 76 76 75 72 74 75 68 59 51 50 51 54 55 56 59
50 46 34 39 50 52 57 59 63 66 66 66 64 60 60 61 63 65 62 57 61 69 69 69 71 69 68 68 71 74 73 69 67 71 68 63 53 52 52 51 55 57 59 64
47 42 53 56 60 66 66 65 64 66 67 66 65 65 63 62 65 65 61 53 55 62 62 62 64 57 58 60 63 65 63 62 61 59 61 56 48 50 49 51 54 56 57 61
36 41 46 55 63 67 69 64 60 60 60 61 61 61 60 60 64 65 62 56 54 52 49 52 54 54 54 53 53 55 55 54 49 50 48 45 45 42 44 49 53 53 53 55
48 55 57 57 57 60 62 60 55 53 53 54 56 57 54 53 53 54 52 49 47 49 38 39 42 44 42 40 42 42 41 40 40 39 39 40 38 39 43 47 51 51 54 61
55 49 49 50 46 45 52 48 47 48 45 46 47 48 48 44 43 43 40 39 38 42 40 33 29 28 28 26 27 29 29 30 32 35 36 34 35 39 43 46 50 54 56 59
49 47 44 40 39 36 36 37 38 38 37 36 38 40 42 41 38 36 35 33 26 26 24 21 17 14 14 14 15 17 21 24 27 29 29 31 34 38 43 47 50 51 53 55
46 46 42 37 34 33 30 29 29 29 28 30 31 32 33 33 31 25 25 30 30 26 20 14 9 6 3 5 11 15 18 22 26 30 35 39 44 48 49 50 51 53 53 53
41 40 39 35 31 30 27 25 23 24 27 30 33 35 37 38 39 39 35 31 27 22 18 19 15 10 8 12 17 22 28 32 37 42 45 47 49 51 52 53 54 52 52 51
37 33 32 28 23 21 24 26 26 27 28 30 33 34 36 38 40 41 41 40 37 32 34 31 29 30 34 39 43 47 50 52 55 57 59 60 62 63 63 63 62 61 59 57
31 27 25 24 24 25 25 25 24 25 26 27 29 31 35 39 42 43 44 47 48 50 52 50 49 52 56 60 62 64 65 66 66 67 67 67 67 66 65 63 62 60 58 57
26 25 24 24 24 24 23 23 23 22 21 23 25 28 31 33 35 37 40 42 45 47 51 53 56 58 60 61 63 65 66 66 66 67 67 67 66 65 64 63 61 59 57 56
21 20 20 19 20 22 24 23 20 19 20 21 24 25 27 29 31 32 34 36 40 43 46 48 50 52 53 55 57 58 58 58 58 58 58 57 56 56 54 53 51 50 48 46
Wind_Direction_500mb
252 254 260 252 262 238 217 202 208 270 263 264 237 255 282 299 302 278 295 302 309 288 300 323 344 346 339 339 335 331 331 330 328 323 313 302 274 250 246 240 242 246 246 242
293 252 253 272 265 239 245 239 239 260 266 277 268 272 278 280 285 279 291 299 301 289 281 296 329 336 333 335 333 329 330 329 327 323 317 309 292 259 242 241 240 237 242 240
270 277 315 293 265 231 227 203 194 244 258 288 273 264 271 277 282 285 286 287 295 286 273 277 308 320 323 324 325 323 326 328 327 325 319 312 301 274 246 240 239 238 234 239
240 57 253 260 222 191 205 232 215 252 264 269 263 271 269 278 278 285 288 282 291 281 273 272 297 308 310 316 313 317 321 323 324 325 322 313 308 291 258 238 237 237 234 234
214 197 281 286 227 175 178 265 248 253 268 269 270 278 273 278 279 282 283 287 282 278 253 275 289 299 301 309 312 312 318 318 321 325 324 317 308 300 276 245 236 236 234 232
107 195 231 269 233 228 249 268 260 253 265 275 276 272 272 281 283 286 287 285 283 256 252 269 286 292 296 305 307 309 312 316 318 320 320 318 308 303 285 259 240 235 236 233
233 245 269 272 253 283 192 273 286 296 294 289 268 259 274 286 287 284 283 287 281 252 261 276 285 290 297 303 309 310 309 311 312 315 317 316 309 301 286 271 249 236 235 233
82 191 261 219 12 189 251 296 299 295 289 290 293 285 281 290 282 283 285 288 277 258 262 275 280 283 289 293 305 305 311 310 309 308 313 315 308 298 284 268 255 242 235 234
181 216 230 202 253 273 281 292 291 296 304 288 283 292 295 296 289 286 285 282 277 263 260 270 270 275 284 293 293 297 304 307 309 306 310 312 305 295 281 265 256 247 238 234
71 255 253 270 279 287 281 286 292 295 294 294 289 288 285 288 290 291 287 280 276 271 259 262 264 277 286 290 290 294 298 301 304 304 306 308 302 290 275 261 257 250 242 236
250 270 279 275 275 282 289 291 287 282 286 295 298 292 290 287 285 282 282 281 281 269 262 257 268 282 289 288 286 288 291 295 299 300 301 304 298 287 272 259 256 253 248 240
256 267 282 286 308 298 296 294 291 296 295 294 302 298 296 292 290 288 284 276 266 256 255 261 268 277 283 283 283 284 288 292 296 296 296 299 294 286 270 257 257 255 252 246
288 288 294 295 293 282 308 307 304 306 304 304 300 296 295 292 287 283 279 278 274 266 259 259 265 272 277 278 277 280 284 288 290 291 291 294 287 276 270 260 256 249 244 241
332 334 318 338 315 308 311 310 311 310 310 307 306 303 297 292 288 286 282 280 277 272 268 267 268 270 274 274 275 278 282 283 284 285 288 288 279 269 260 256 258 247 234 231
334 333 313 297 300 309 311 315 316 316 316 314 313 311 308 303 298 293 287 285 281 274 272 272 270 268 272 272 275 277 278 278 280 282 283 280 270 261 252 251 252 249 238 222
322 321 318 309 312 313 315 315 315 315 315 314 315 313 309 304 301 299 296 292 285 280 277 275 270 269 270 272 273 273 273 275 278 279 278 270 261 254 247 244 246 243 236 223
324 322 319 312 313 312 311 310 310 309 310 311 311 310 308 306 302 301 301 298 290 285 281 275 273 269 267 267 268 269 271 273 275 272 267 261 252 248 240 236 238 236 232 225
306 297 299 300 303 303 302 304 305 305 307 308 308 307 309 311 309 309 306 301 296 291 287 281 274 270 266 266 266 268 270 271 268 263 260 253 245 240 233 232 230 227 220 217
311 304 303 301 302 301 301 303 305 307 310 311 310 311 311 310 311 309 307 301 299 301 299 287 279 275 272 267 264 263 263 262 259 258 250 240 237 230 223 221 217 212 208 198
319 314 310 307 305 304 302 303 306 310 315 314 316 317 317 316 315 318 319 308 305 302 304 298 285 275 270 265 258 258 250 250 247 239 226 216 207 202 198 198 196 192 188 185
329 326 324 321 319 321 318 315 316 320 327 328 326 328 329 331 326 322 327 334 331 319 316 311 301 288 277 265 250 237 236 227 217 206 194 182 177 171 168 167 168 169 169 170
338 338 340 336 332 334 336 335 334 338 343 351 354 352 351 355 353 351 347 347 351 357 350 351 346 334 300 229 205 196 189 180 171 161 151 146 145 142 141 142 142 143 145 147
341 343 343 346 344 343 348 353 359 6 12 16 19 18 16 15 16 18 21 23 19 24 31 45 36 48 91 130 139 144 143 140 136 133 132 132 131 131 131 130 130 132 133 135
345 350 354 357 0 6 18 23 25 30 30 31 31 30 31 38 38 38 38 37 41 45 61 67 78 91 100 105 111 113 114 114 115 115 116 117 117 118 117 117 118 118 119 121
356 358 4 13 21 26 26 26 27 33 36 40 42 44 44 43 45 46 50 55 59 64 68 74 83 89 93 96 98 99 101 103 105 107 108 108 109 109 110 110 111 112 113 113
8 12 16 18 18 19 20 21 26 29 37 44 46 49 52 54 56 59 63 67 70 74 77 80 82 85 88 91 94 96 97 100 101 102 102 103 104 104 104 105 105 106 106 107
18 18 19 17 16 21 23 23 26 38 43 45 45 51 54 58 61 66 70 74 76 79 82 84 86 87 89 91 93 94 95 96 97 99 101 102 103 104 105 106 106 107 107 108
Wind_Speed_850mb
8 11 7 14 25 10 15 11 13 33 18 35 10 16 44 49 37 27 35 30 26 23 24 22 31 36 38 41 46 52 52 50 45 41 39 38 38 46 51 52 47 46 50 54
7 12 14 30 37 17 29 26 22 33 46 34 53 49 55 54 51 50 47 37 30 29 27 22 26 34 37 38 42 50 53 54 53 49 45 41 38 41 50 54 49 49 51 55
10 5 4 21 24 37 16 8 12 20 37 29 20 33 50 65 62 57 50 45 42 40 30 24 28 30 34 42 43 46 53 53 56 53 50 47 41 40 47 52 52 50 53 57
7 4 8 12 5 11 21 21 14 19 28 40 38 63 66 74 69 65 61 51 52 47 37 25 28 28 31 39 40 45 50 54 56 56 54 52 48 41 45 51 57 54 56 57
6 10 20 32 10 9 12 25 23 18 29 58 64 60 48 71 70 72 62 61 45 41 36 35 31 27 36 42 46 49 49 54 56 59 60 59 54 47 40 52 58 61 59 61
4 9 13 30 4 22 10 29 28 43 40 44 59 11 25 80 81 68 48 36 40 37 36 38 33 36 41 43 45 47 51 54 56 58 62 62 57 51 47 47 58 63 64 65
21 13 16 15 22 8 8 16 26 34 40 44 25 43 69 72 70 58 45 42 40 42 45 43 37 40 47 46 47 47 54 58 57 58 64 64 60 54 50 46 53 62 67 69
3 5 27 23 2 13 17 34 46 54 54 49 47 54 58 65 65 58 46 48 46 54 56 52 45 46 49 51 43 48 56 60 60 60 63 64 62 58 50 48 50 61 67 73
17 15 12 15 21 44 68 62 56 56 58 52 54 60 63 63 59 63 55 55 58 63 65 57 54 51 51 54 48 53 58 65 65 65 66 63 62 59 49 52 53 63 69 76
4 18 34 55 67 57 50 57 51 46 52 51 50 55 60 56 53 49 45 50 56 59 65 60 56 50 53 52 54 59 62 68 70 70 71 69 61 56 50 57 59 66 72 77
24 35 46 54 58 42 31 32 39 41 42 42 42 43 42 48 49 51 53 50 48 48 52 57 54 53 55 58 61 64 65 70 73 73 73 74 64 55 52 58 62 67 73 75
30 51 31 36 26 33 33 28 28 37 47 48 49 52 52 54 51 48 48 44 43 41 47 54 56 62 65 66 67 67 70 73 74 76 75 74 67 58 52 54 55 57 62 65
22 32 36 40 27 20 26 33 38 43 45 53 52 54 58 64 66 65 63 59 53 55 59 64 68 72 73 70 69 72 74 76 77 78 77 75 65 52 53 50 48 54 54 56
16 33 15 15 20 40 38 39 44 46 46 46 50 49 52 61 68 69 71 70 70 74 78 78 79 83 78 72 74 77 76 77 77 77 78 73 64 52 50 50 53 57 58 56
36 37 33 34 35 41 44 50 56 56 56 56 53 55 54 59 63 64 63 64 67 75 81 76 76 80 76 75 76 76 76 75 72 74 75 68 59 51 50 51 54 55 56 59
50 46 34 39 50 52 57 59 63 66 66 66 64 60 60 61 63 65 62 57 61 69 69 69 71 69 68 68 71 74 73 69 67 71 68 63 53 52 52 51 55 57 59 64
47 42 53 56 60 66 66 65 64 66 67 66 65 65 63 62 65 65 61 53 55 62 62 62 64 57 58 60 63 65 63 62 61 59 61 56 48 50 49 51 54 56 57 61
36 41 46 55 63 67 69 64 60 60 60 61 61 61 60 60 64 65 62 56 54 52 49 52 54 54 54 53 53 55 55 54 49 50 48 45 45 42 44 49 53 53 53 55
48 55 57 57 57 60 62 60 55 53 53 54 56 57 54 53 53 54 52 49 47 49 38 39 42 44 42 40 42 42 41 40 40 39 39 40 38 39 43 47 51 51 54 61
55 49 49 50 46 45 52 48 47 48 45 46 47 48 48 44 43 43 40 39 38 42 40 33 29 28 28 26 27 29 29 30 32 35 36 34 35 39 43 46 50 54 56 59
49 47 44 40 39 36 36 37 38 38 37 36 38 40 42 41 38 36 35 33 26 26 24 21 17 14 14 14 15 17 21 24 27 29 29 31 34 38 43 47 50 51 53 55
46 46 42 37 34 33 30 29 29 29 28 30 31 32 33 33 31 25 25 30 30 26 20 14 9 6 3 5 11 15 18 22 26 30 35 39 44 48 49 50 51 53 53 53
41 40 39 35 31 30 27 25 23 24 27 30 33 35 37 38 39 39 35 31 27 22 18 19 15 10 8 12 17 22 28 32 37 42 45 47 49 51 52 53 54 52 52 51
37 33 32 28 23 21 24 26 26 27 28 30 33 34 36 38 40 41 41 40 37 32 34 31 29 30 34 39 43 47 50 52 55 57 59 60 62 63 63 63 62 61 59 57
31 27 25 24 24 25 25 25 24 25 26 27 29 31 35 39 42 43 44 47 48 50 52 50 49 52 56 60 62 64 65 66 66 67 67 67 67 66 65 63 62 60 58 57
26 25 24 24 24 24 23 23 23 22 21 23 25 28 31 33 35 37 40 42 45 47 51 53 56 58 60 61 63 65 66 66 66 67 67 67 66 65 64 63 61 59 57 56
21 20 20 19 20 22 24 23 20 19 20 21 24 25 27 29 31 32 34 36 40 43 46 48 50 52 53 55 57 58 58 58 58 58 58 57 56 56 54 53 51 50 48 46
Wind_Direction_850mb
252 254 260 252 262 238 217 202 208 270 263 264 237 255 282 299 302 278 295 302 309 288 300 323 344 346 339 339 335 331 331 330 328 323 313 302 274 250 246 240 242 246 246 242
293 252 253 272 265 239 245 239 239 260 266 277 268 272 278 280 285 279 291 299 301 289 281 296 329 336 333 335 333 329 330 329 327 323 317 309 292 259 242 241 240 237 242 240
270 277 315 293 265 231 227 203 194 244 258 288 273 264 271 277 282 285 286 287 295 286 273 277 308 320 323 324 325 323 326 328 327 325 319 312 301 274 246 240 239 238 234 239
240 57 253 260 222 191 205 232 215 252 264 269 263 271 269 278 278 285 288 282 291 281 273 272 297 308 310 316 313 317 321 323 324 325 322 313 308 291 258 238 237 237 234 234
214 197 281 286 227 175 178 265 248 253 268 269 270 278 273 278 279 282 283 287 282 278 253 275 289 299 301 309 312 312 318 318 321 325 324 317 308 300 276 245 236 236 234 232
107 195 231 269 233 228 249 268 260 253 265 275 276 272 272 281 283 286 287 285 283 256 252 269 286 292 296 305 307 309 312 316 318 320 320 318 308 303 285 259 240 235 236 233
233 245 269 272 253 283 192 273 286 296 294 289 268 259 274 286 287 284 283 287 281 252 261 276 285 290 297 303 309 310 309 311 312 315 317 316 309 301 286 271 249 236 235 233
82 191 261 219 12 189 251 296 299 295 289 290 293 285 281 290 282 283 285 288 277 258 262 275 280 283 289 293 305 305 311 310 309 308 313 315 308 298 284 268 255 242 235 234
181 216 230 202 253 273 281 292 291 296 304 288 283 292 295 296 289 286 285 282 277 263 260 270 270 275 284 293 293 297 304 307 309 306 310 312 305 295 281 265 256 247 238 234
71 255 253 270 279 287 281 286 292 295 294 294 289 288 285 288 290 291 287 280 276 271 259 262 264 277 286 290 290 294 298 301 304 304 306 308 302 290 275 261 257 250 242 236
250 270 279 275 275 282 289 291 287 282 286 295 298 292 290 287 285 282 282 281 281 269 262 257 268 282 289 288 286 288 291 295 299 300 301 304 298 287 272 259 256 253 248 240
256 267 282 286 308 298 296 294 291 296 295 294 302 298 296 292 290 288 284 276 266 256 255 261 268 277 283 283 283 284 288 292 296 296 296 299 294 286 270 257 257 255 252 246
288 288 294 295 293 282 308 307 304 306 304 304 300 296 295 292 287 283 279 278 274 266 259 259 265 272 277 278 277 280 284 288 290 291 291 294 287 276 270 260 256 249 244 241
332 334 318 338 315 308 311 310 311 310 310 307 306 303 297 292 288 286 282 280 277 272 268 267 268 270 274 274 275 278 282 283 284 285 288 288 279 269 260 256 258 247 234 231
334 333 313 297 300 309 311 315 316 316 316 314 313 311 308 303 298 293 287 285 281 274 272 272 270 268 272 272 275 277 278 278 280 282 283 280 270 261 252 251 252 249 238 222
322 321 318 309 312 313 315 315 315 315 315 314 315 313 309 304 301 299 296 292 285 280 277 275 270 269 270 272 273 273 273 275 278 279 278 270 261 254 247 244 246 243 236 223
324 322 319 312 313 312 311 310 310 309 310 311 311 310 308 306 302 301 301 298 290 285 281 275 273 269 267 267 268 269 271 273 275 272 267 261 252 248 240 236 238 236 232 225
306 297 299 300 303 303 302 304 305 305 307 308 308 307 309 311 309 309 306 301 296 291 287 281 274 270 266 266 266 268 270 271 268 263 260 253 245 240 233 232 230 227 220 217
311 304 303 301 302 301 301 303 305 307 310 311 310 311 311 310 311 309 307 301 299 301 299 287 279 275 272 267 264 263 263 262 259 258 250 240 237 230 223 221 217 212 208 198
319 314 310 307 305 304 302 303 306 310 315 314 316 317 317 316 315 318 319 308 305 302 304 298 285 275 270 265 258 258 250 250 247 239 226 216 207 202 198 198 196 192 188 185
329 326 324 321 319 321 318 315 316 320 327 328 326 328 329 331 326 322 327 334 331 319 316 311 301 288 277 265 250 237 236 227 217 206 194 182 177 171 168 167 168 169 169 170
338 338 340 336 332 334 336 335 334 338 343 351 354 352 351 355 353 351 347 347 351 357 350 351 346 334 300 229 205 196 189 180 171 161 151 146 145 142 141 142 142 143 145 147
341 343 343 346 344 343 348 353 359 6 12 16 19 18 16 15 16 18 21 23 19 24 31 45 36 48 91 130 139 144 143 140 136 133 132 132 131 131 131 130 130 132 133 135
345 350 354 357 0 6 18 23 25 30 30 31 31 30 31 38 38 38 38 37 41 45 61 67 78 91 100 105 111 113 114 114 115 115 116 117 117 118 117 117 118 118 119 121
356 358 4 13 21 26 26 26 27 33 36 40 42 44 44 43 45 46 50 55 59 64 68 74 83 89 93 96 98 99 101 103 105 107 108 108 109 109 110 110 111 112 113 113
8 12 16 18 18 19 20 21 26 29 37 44 46 49 52 54 56 59 63 67 70 74 77 80 82 85 88 91 94 96 97 100 101 102 102 103 104 104 104 105 105 106 106 107
18 18 19 17 16 21 23 23 26 38 43 45 45 51 54 58 61 66 70 74 76 79 82 84 86 87 89 91 93 94 95 96 97 99 101 102 103 104 105 106 106 107 107 108